Regional Weather Roundup
Issued by NWS Cleveland, OH

Home | Current Version | Previous Version | Text Only | Print | Product List | Glossary On
Versions: 1 2 3 4 5 6 7 8 9 10 11 12 13 14 15 16 17 18 19 20 21 22 23 24 25 26 27 28 29 30 31 32 33 34 35 36 37 38 39 40 41 42 43 44 45 46 47 48 49 50
000
ASUS41 KCLE 211410
RWRCLE
OHIO REGIONAL WEATHER ROUNDUP
NATIONAL WEATHER SERVICE WILMINGTON, OH
1000 AM EDT MON APR 21 2014

NOTE: "FAIR" INDICATES FEW OR NO CLOUDS BELOW 12,000 FEET WITH NO
SIGNIFICANT WEATHER AND/OR OBSTRUCTIONS TO VISIBILITY.

OHZ001>008-015>018-024>027-034-035-043-044-211500-
   NORTHWEST OHIO

CITY           SKY/WX    TMP DP  RH WIND       PRES   REMARKS
DEFIANCE       CLOUDY    60  40  47 SW5       30.02F
FINDLAY        PTSUNNY   65  43  44 SW6       30.02F
TOLEDO EXPRESS PTSUNNY   63  38  39 W7        30.01F
TOLEDO METCALF PTSUNNY   63  40  42 SW8       30.02F
LIMA           PTSUNNY   66  42  41 SW6       30.03F
$$

OHZ009>014-019>023-028>033-038-089-211500-
   NORTHEAST OHIO

CITY           SKY/WX    TMP DP  RH WIND       PRES   REMARKS
CLE-HOPKINS    MOSUNNY   69  35  28 SW6       30.05F
CLE-LAKEFRONT  SUNNY     66  33  29 S7        30.01F
CUY CO. ARPT   PTSUNNY   68  32  26 SW9       30.04F
LORAIN-ELYRIA  SUNNY     67  38  34 SW8       30.03F
ASHTABULA      SUNNY     62  32  32 SW8       30.05F
AKRON-CANTON   MOSUNNY   66  30  25 S7        30.05F
WOOSTER        SUNNY     62  33  33 SW7       30.05F
MANSFIELD      MOSUNNY   68  38  33 SW6       30.05F
YOUNGSTOWN     PTSUNNY   63  29  27 S7        30.05F
$$

OHZ042-051>053-060>062-070>072-077>081-211500-
  SOUTHWEST OHIO

CITY           SKY/WX    TMP DP  RH WIND       PRES   REMARKS
CINC-COVINGTON PTSUNNY   65  44  46 SW6       30.06F
CINC-LUNKEN    PTSUNNY   56  49  77 CALM      30.07F
HAMILTON       PTSUNNY   61  50  67 CALM      30.06F
DAYTON         PTSUNNY   64  44  48 SW6       30.06F
WRIGHT-PAT AFB PTSUNNY   59  47  64 CALM      30.05F
DAYTON GENERAL PTSUNNY   65  44  46 SW6       30.05F
WILMINGTON     MOSUNNY   67  42  40 SW9       30.06F
$$

OHZ036-037-039>041-045>050-054>059-063>069-073>076-082>088-211500-
  CENTRAL AND SOUTHEAST OHIO

CITY           SKY/WX    TMP DP  RH WIND       PRES   REMARKS
COLUMBUS       PTSUNNY   64  35  34 S5        30.05F
OSU AIRPORT    PTSUNNY   64  42  44 CALM      30.04F
BOLTON FIELD   SUNNY     63  46  55 CALM      30.05F
RICKENBACK AFB PTSUNNY   63  37  38 S5        30.05F
NEWARK         MOSUNNY   62  38  40 S3        30.05F
MARION         MOSUNNY   61  43  51 S6        30.04F
LANCASTER      MOSUNNY   63  38  39 S5        30.06F
ZANESVILLE     SUNNY     61  35  37 S6        30.06F
NEW PHILLY     SUNNY     61  35  37 E6        30.06F
$$



USA.gov is the U.S. government's official web portal to all federal, state and local government web resources and services.